Location: Bli��� Lhota
(48.7570°N, 14.0120°E)
Time: 10:47:37
(UTC+00:00)

Daily predictions for brighter satellites

Satellite Brightness Start Highest point End
(mag) Time Altitude Azimuth Time Altitude Azimuth Time Altitude Azimuth
Cosmos 158 Rocket 4.4 17:34:13 10° NNW 17:39:30 69° WSW 17:44:37 10° S
Cosmos 1689 Rocket 4.1 17:37:34 10° N 17:40:20 34° WNW 17:43:04 10° SW
H-2A R/B 2.1 17:36:13 10° SE 17:41:02 54° ENE 17:45:58 10° N
ARGOS 3.5 17:36:22 10° SE 17:41:25 44° ENE 17:46:31 10° N
CZ-2C R/B 3.9 17:38:50 10° NE 17:42:57 21° E 17:47:05 10° SE
CENTAUR R/B 3.9 17:36:02 10° NW 17:43:03 38° NNE 17:50:55 10° E
SL-16 R/B 4.4 17:39:07 10° NW 17:43:55 29° WSW 17:48:41 10° SSW
ATLAS 5 CENTAUR R/B 2.2 17:41:31 10° NW 17:44:09 71° SW 17:51:18 10° SE
Resurs 01 Rocket 3.8 17:43:59 10° ENE 17:44:17 10° NE 17:44:35 10° NE
Cosmos 1707 3.7 17:42:09 10° NNE 17:45:31 28° ENE 17:48:50 10° SE
Cosmos 1743 3.5 17:43:40 10° SSW 17:47:26 56° WNW 17:51:14 10° N
Iridium 4 Rocket 3.5 17:43:16 10° S 17:48:10 78° E 17:53:35 10° N
ATLAS 3B R/B 4.2 17:43:08 10° NW 17:48:27 24° NNE 17:53:54 10° ENE
SJ-6B 4.1 17:46:46 10° ESE 17:49:34 21° ENE 17:52:25 10° NNE
Sich 1 Rocket 4.2 17:45:33 10° SSE 17:49:37 35° E 17:53:45 10° NNE
USA 238 DEB 4.4 17:44:22 10° NW 17:51:11 45° NE 17:58:11 10° ESE
USA 238 4.4 17:44:28 10° NW 17:51:16 45° NE 17:58:16 10° ESE
ATLAS CENTAUR R/B 3.7 17:50:46 10° W 17:53:47 21° NW 17:56:43 10° NNE
Cosmos 2263 Rocket 2.1 17:50:43 10° SSW 17:56:14 68° ESE 18:01:48 10° NNE
Meteor 2-9 Rocket 4.3 17:53:20 10° S 17:59:11 74° E 18:04:58 10° NNE
USA 102 4.3 17:54:21 10° SSE 18:00:25 88° ENE 18:03:56 10° NNW
SL-08 RB Rocket 4.1 17:56:45 10° SE 18:01:05 43° ENE 18:05:25 10° N
CZ-2C R/B 3.3 17:58:46 10° S 18:04:00 79° WSW 18:09:34 10° NNW
Cosmos 1844 Rocket 3.9 18:00:15 10° SE 18:04:00 19° E 18:07:46 10° ENE
SJ 16-02 2.5 18:00:40 10° SW 18:04:54 48° WNW 18:09:11 10° NNE
Cosmos 990 Rocket 4.1 18:00:03 10° SSW 18:05:11 84° WNW 18:10:22 10° NNE
Cosmos 2227 4.2 18:00:04 10° SSW 18:05:49 85° ESE 18:11:34 10° NNE
Cosmos 1464 Rocket 4.3 18:00:27 10° SSE 18:06:11 44° E 18:11:58 10° NNE
ISS -2.2 18:04:20 10° S 18:06:52 20° SE 18:08:15 16° ESE
Abrixas rocket 1.8 18:06:29 10° WSW 18:09:18 66° SSE 18:11:14 18° E
Okean 2 Rocket 3.7 18:05:44 10° SSE 18:09:50 36° E 18:13:57 10° NNE
Cosmos 1943 3.5 18:04:36 10° NNW 18:10:14 70° WSW 18:15:51 10° SSE
SJ-11-01 4.4 18:05:37 10° S 18:10:20 80° WSW 18:15:05 10° NNW
Lacrosse 5 rocket 2.6 18:10:02 10° W 18:14:06 41° NNW 18:18:22 10° NE
Ariane Rocket 3.2 18:10:51 10° SE 18:15:45 52° ENE 18:20:41 10° N
Cosmos 1437 3.7 18:15:06 10° NNW 18:18:01 46° W 18:20:53 10° S
NOSS 3-2 (A) 4.2 18:12:29 10° NW 18:19:45 62° NE 18:26:32 16° ESE
NOSS 2-2 (C) 3.4 18:17:40 10° SSW 18:21:00 42° ESE 18:24:40 10° NE
USA 116 4.3 18:18:55 10° N 18:22:13 54° WNW 18:25:50 10° SSW
Cosmos 1300 Rocket 3.8 18:18:54 10° SSE 18:23:06 47° E 18:27:21 10° NNE
SPOT 3 Rocket 4.3 18:22:58 18° ESE 18:26:05 33° ENE 18:30:39 10° N
MetOp-A 4.3 18:22:25 10° SE 18:27:34 53° ENE 18:32:46 10° N
Cosmos 1898 Rocket 4.2 18:27:17 10° SW 18:32:22 57° WNW 18:37:30 10° NNE
Cosmos 1891 Rocket 4.4 18:27:43 10° S 18:33:51 73° E 18:39:55 10° NNE
Cosmos 1867 3.7 18:28:28 10° NW 18:33:57 76° SW 18:38:37 14° SSE
Cosmos 1536 Rocket 3.6 18:33:47 10° N 18:38:10 57° ENE 18:41:16 19° SSE
USA 234 3.7 18:35:14 10° ENE 18:41:16 38° SE 18:47:18 10° SSW
Cosmos 1626 3.9 18:41:11 10° NNE 18:43:18 18° ENE 18:43:18 18° ENE
Meteor 2-5 Rocket 4.3 18:40:29 10° N 18:45:43 38° ENE 18:48:05 26° ESE
DMSP B5D2-2 4.1 18:41:02 10° NNE 18:46:16 55° E 18:51:26 10° S
CREW DRAGON DEMO-1 DEB 3.5 18:44:11 10° WNW 18:47:08 47° N 18:47:59 35° NE
CZ-4 R/B 4.5 18:48:10 10° SW 18:50:47 16° W 18:53:22 10° NW
Cosmos 2151 Rocket 3.5 18:46:33 10° S 18:50:57 67° E 18:55:26 10° NNE
USA 186 2.4 18:48:48 15° S 18:51:12 55° W 18:54:23 10° NNW
Cosmos 372 Rocket 3.9 18:46:09 10° SSW 18:51:24 81° ESE 18:56:40 10° NNE
Cosmos 1025 Rocket 3.1 18:47:47 10° NNW 18:52:11 80° W 18:56:09 13° S
Cosmos 2150 Rocket 4.1 18:48:36 10° S 18:53:50 56° ESE 18:59:09 10° NNE
NOSS 3-2 (C) 4.1 18:46:35 10° NW 18:53:52 65° NE 18:58:44 26° ESE
Nadezhda 4 Rocket 3.9 18:52:46 10° N 18:58:57 86° E 19:04:42 12° S
Cosmos 1805 4.0 19:00:43 34° ENE 19:00:43 34° ENE 19:03:35 10° NNE
OBJECT-B 0.6 19:01:23 67° ESE 19:01:38 72° ENE 19:04:52 10° N
Cosmos 2082 Rocket 4.0 18:59:11 10° N 19:02:50 17° NE 19:04:43 15° ENE
Cosmos 2034 Rocket 3.9 18:56:39 10° S 19:03:00 82° E 19:09:23 10° N
MOS 1 Rocket 4.4 18:58:54 10° N 19:03:11 43° WNW 19:07:17 10° SW
Cosmos 1125 Rocket 3.7 18:59:45 10° S 19:04:49 47° ESE 19:09:54 10° NNE
FREGAT/IRIS 3.3 19:05:32 40° WSW 19:05:49 42° W 19:08:20 10° NNW
Exosat Rocket 3.8 19:00:50 10° S 19:06:12 46° ESE 19:10:58 10° NE
Cosmos 1674 2.5 19:05:07 10° N 19:09:00 78° E 19:09:42 57° SSE
COSMOS 2406 4.1 19:05:49 10° NNW 19:10:55 33° NE 19:12:17 29° ENE
Meteor 1-24 Rocket 4.0 19:07:40 10° N 19:12:58 47° ENE 19:14:11 40° ESE
SL-14 R/B 4.3 19:13:24 10° N 19:16:10 32° NE 19:16:10 32° NE
ERS-1 Rocket 4.4 19:17:24 22° ENE 19:17:24 22° ENE 19:21:03 10° N
NOSS 2-2 (E) 4.1 19:14:55 10° WSW 19:18:22 47° NW 19:22:25 10° NE
Resurs 01 Rocket 1.6 19:19:17 58° ESE 19:19:54 66° ENE 19:24:21 10° N
H-2A R/B 4.3 19:16:57 10° SW 19:20:48 22° W 19:24:44 10° NW
ATLAS 2AS CENTAUR R/B 3.7 19:16:06 10° S 19:24:48 31° E 19:29:53 10° NE
CZ-2C R/B 3.0 19:18:14 10° N 19:23:42 68° WNW 19:29:15 10° SSW
SJ-6B 4.1 19:21:47 18° SSW 19:24:02 36° W 19:27:32 10° NNW
Landsat 7 4.3 19:25:47 41° ENE 19:25:47 41° ENE 19:30:09 10° N
Lacrosse 4 Rocket 3.6 19:23:39 10° N 19:25:51 14° NE 19:25:54 14° NE
KORONAS-FOTON 4.0 19:22:41 10° NNW 19:26:37 69° W 19:27:14 57° SSW
NOSS 2-2 (D) 4.0 19:23:21 10° WSW 19:26:48 49° NW 19:30:48 10° NE
Cosmos 1766 4.2 19:33:40 39° NNE 19:33:40 39° NNE 19:36:15 10° NNE
SPOT 1/Viking Rocket 4.0 19:33:46 42° ENE 19:33:46 42° ENE 19:38:36 10° N
CENTAUR R/B 3.1 19:26:45 10° NW 19:34:46 89° NE 19:38:32 39° SE
Cosmos 1844 3.5 19:29:34 10° SSW 19:35:15 74° ESE 19:40:54 10° NNE
IGS 5A 4.3 19:37:09 40° NNE 19:37:09 40° NNE 19:40:12 10° N
Cosmos 1634 Rocket 3.8 19:34:23 40° SSE 19:36:37 68° E 19:42:46 10° NNE
ARIANE 5 R/B 2.9 19:37:43 54° NE 19:37:43 54° NE 19:41:29 10° N
SWAS 4.5 19:34:41 10° NNW 19:38:59 72° WSW 19:39:04 72° SW
Cosmos 2263 Rocket 4.3 19:36:02 10° WSW 19:40:41 26° NW 19:45:21 10° NNE
ATLAS 3B R/B 3.2 19:34:16 10° NW 19:40:50 47° NE 19:42:49 38° ENE
Cosmos 1269 Rocket 3.9 19:35:44 10° NNW 19:41:04 70° ENE 19:41:30 67° E
Cosmos 2285 Rocket 3.8 19:35:11 10° SSW 19:41:29 79° ESE 19:47:51 10° NNE
MetOp-B 4.0 19:41:10 64° ESE 19:41:51 74° ENE 19:47:12 10° NNW
USA 238 DEB 4.1 19:35:24 10° NW 19:42:30 63° SW 19:45:37 36° S
USA 238 4.1 19:35:30 10° NW 19:42:36 63° SW 19:45:42 36° S
ISS -1.6 19:39:58 10° WSW 19:41:15 21° WSW 19:41:15 21° WSW
Cosmos 1844 Rocket 2.7 19:41:40 10° SSW 19:47:14 77° WNW 19:52:52 10° NNE
Spot 2 Rocket 3.6 19:48:07 59° NE 19:48:07 59° NE 19:52:51 10° N
Okean 1 Rocket 3.4 19:51:22 54° WSW 19:52:04 63° WNW 19:56:33 10° N
Lacrosse 5 rocket 3.2 19:50:20 10° WNW 19:54:10 28° N 19:55:13 25° NNE
Cosmos 1092 Rocket 4.4 19:51:15 10° NNW 19:57:17 58° W 20:00:15 30° SSW
Cosmos 2026 Rocket 4.2 19:58:33 10° NNW 20:04:52 67° W 20:06:56 43° SSW
CZ-2C R/B 4.3 20:00:38 10° N 20:04:59 54° WNW 20:05:30 51° W
Meteor 2-19 Rocket 4.3 19:59:31 10° N 20:05:39 69° ENE 20:05:39 69° ENE
Cosmos 1833 Rocket 2.9 20:02:32 10° NNW 20:07:46 56° NE 20:07:46 56° NE
Cosmos 2251 Rocket 4.4 20:08:39 10° NNW 20:12:49 39° NNE 20:12:49 39° NNE
Terra 3.3 20:19:13 29° NNE 20:19:13 29° NNE 20:21:53 10° N
Cosmos 1626 4.2 20:15:49 10° NNW 20:17:51 26° NW 20:17:51 26° NW
Cosmos 2279 Rocket 3.8 20:20:51 88° SSE 20:20:55 89° ESE 20:27:14 10° N
Cosmos 2142 Rocket 4.5 20:21:19 67° SW 20:22:09 79° W 20:28:25 10° N
USA 234 3.2 20:19:22 17° NE 20:24:40 81° NNW 20:31:13 10° WSW
SPOT 5 3.8 20:40:09 48° N 20:40:09 48° N 20:43:57 10° NNW
Cosmos 2082 Rocket 2.9 20:42:25 10° NNW 20:46:33 48° N 20:46:33 48° N
COSMOS 2406 4.1 20:49:58 10° NW 20:54:20 45° WNW 20:54:20 45° WNW
ERS-1 Rocket 4.2 20:57:24 39° NW 20:57:24 39° NW 21:00:40 10° NNW
Resurs 01 Rocket 4.1 20:56:50 15° W 20:56:51 15° W 20:59:31 10° NW
Cosmos 2098 Rocket 4.5 20:57:04 10° NNW 21:03:50 60° WNW 21:03:50 60° WNW
Lacrosse 4 Rocket 4.1 21:01:11 10° NNW 21:02:11 17° NNW 21:02:11 17° NNW
Cosmos 2266 Rocket 4.5 21:00:49 10° NNW 21:05:35 54° NW 21:05:35 54° NW
ATLAS 2AS CENTAUR R/B 3.1 21:11:59 60° WSW 21:13:32 75° NW 21:21:25 10° NE
Cosmos 2278 Rocket 3.9 21:22:33 26° NNE 21:22:33 26° NNE 21:24:54 10° NNE
CENTAUR R/B 4.4 21:18:12 10° WNW 21:24:59 29° WSW 21:25:44 29° WSW
ATLAS 3B R/B 3.5 21:25:03 10° NW 21:30:03 45° WNW 21:30:03 45° WNW
Lacrosse 5 rocket 4.3 21:29:54 10° NW 21:30:50 16° NW 21:30:50 16° NW
Terra 4.4 21:58:06 16° NW 21:58:06 16° NW 21:59:22 10° NW
USA 234 4.0 22:01:07 10° ENE 22:07:18 47° N 22:13:30 10° W
Cosmos 1943 Rocket 4.5 22:35:46 17° NNE 22:35:46 17° NNE 22:37:03 10° NNE
Cosmos 2369 Rocket 4.4 22:59:19 20° NNE 22:59:19 20° NNE 23:00:57 10° NNE
CZ-4C R/B 4.1 23:02:00 27° NNE 23:02:00 27° NNE 23:05:07 10° NE
Cosmos 2278 Rocket 4.5 23:04:22 18° NW 23:04:22 18° NW 23:08:11 10° N
ATLAS 2AS CENTAUR R/B 4.4 22:59:08 11° W 23:05:47 33° NNW 23:12:39 10° NE
Cosmos 2227 Rocket 4.2 23:38:48 10° N 23:43:14 23° NE 23:43:30 23° NE
USA 234 4.1 23:43:29 10° E 23:49:38 46° N 23:55:49 10° WNW
